Location: Gilfach Goch
(51.5914°N, 3.4717°W)
Time: 22:35:10
(UTC+00:00)

Daily predictions for brighter satellites

Satellite Brightness Start Highest point End
(mag) Time Altitude Azimuth Time Altitude Azimuth Time Altitude Azimuth
Cosmos 2154 Rocket 4.4 17:14:26 10° SSE 17:20:15 42° E 17:26:03 10° NNE
Cosmos 2058 Rocket 3.6 17:16:29 10° NNW 17:20:50 66° W 17:25:09 10° S
Cosmos 1242 Rocket 3.0 17:17:52 10° SSE 17:21:10 38° E 17:24:30 10° NNE
ATLAS CENTAUR R/B 2.9 17:18:15 10° NNW 17:21:29 20° NNE 17:24:32 10° ENE
Starlink K 3.3 17:18:32 10° SW 17:21:33 51° SSE 17:24:34 10° ENE
Cosmos 1674 2.8 17:18:20 10° SSW 17:22:04 79° W 17:25:48 10° N
Okean 1-7 Rocket 3.7 17:17:50 10° SSW 17:22:14 82° W 17:26:41 10° N
Starlink M 3.3 17:20:09 10° SW 17:23:11 53° SSE 17:26:13 10° ENE
Cosmos 2082 Rocket 4.3 17:22:03 10° WNW 17:25:32 16° NNW 17:29:02 10° N
Cosmos 2150 Rocket 4.0 17:22:13 10° SSW 17:27:20 70° ESE 17:32:29 10° NNE
Cosmos 1602 Rocket 4.1 17:24:03 10° SSE 17:28:07 38° E 17:32:10 10° NNE
CZ-4 R/B 2.3 17:28:56 10° ESE 17:32:23 27° ENE 17:35:55 10° N
SMAP 3.1 17:28:08 10° SSE 17:32:47 89° WSW 17:37:29 10° NNW
Cosmos 1300 2.6 17:28:58 10° N 17:32:48 67° ENE 17:36:35 10° SSE
Cosmos 2237 Rocket 2.2 17:27:14 10° NNW 17:32:50 62° NE 17:38:24 10° SE
ATLAS CENTAUR R/B 3.7 17:28:13 10° SW 17:33:23 84° SE 17:48:14 10° ENE
COSMO-SKYMED 1 3.7 17:33:39 10° NE 17:37:14 24° E 17:40:47 10° SSE
Cosmos 1689 Rocket 3.3 17:34:27 10° N 17:37:17 42° WNW 17:40:06 10° SW
Cosmos 1125 Rocket 3.7 17:32:38 10° S 17:37:38 51° ESE 17:42:41 10° NNE
YAOGAN 6 3.0 17:34:45 10° SE 17:38:14 40° ENE 17:41:41 10° N
Cosmos 2333 Rocket 3.2 17:32:55 10° NW 17:38:30 54° WSW 17:44:00 10° S
NOSS 2-1 (E) 4.3 17:33:48 10° NW 17:38:43 61° NE 17:45:32 10° ESE
AQUARIUS 4.2 17:34:31 10° SSE 17:39:01 86° WSW 17:43:33 10° NNW
Cosmos 2074 Rocket 4.0 17:32:54 10° S 17:39:12 85° E 17:45:32 10° N
Cosmos 1626 2.2 17:37:13 10° S 17:40:49 55° E 17:44:29 10° NNE
TIMED 4.5 17:36:40 10° NNW 17:41:05 84° ENE 17:45:27 10° SSE
NOAA 12 4.0 17:38:19 10° SSE 17:43:33 79° ENE 17:48:49 10° NNW
IRS-1C Rocket 4.4 17:39:16 10° S 17:44:31 76° WSW 17:49:49 10° NNW
NOSS 0 Rocket 4.1 17:38:42 10° NNW 17:44:58 82° WSW 17:51:10 10° SSE
Cosmos 1758 Rocket 4.5 17:41:48 10° SE 17:45:25 27° E 17:49:03 10° NNE
CSL-04 Rocket 4.2 17:42:21 10° SE 17:47:22 37° ENE 17:52:28 10° N
Cosmos 1455 3.3 17:44:30 10° NNE 17:47:39 24° ENE 17:50:46 10° SE
Envisat 3.0 17:43:05 10° SSE 17:48:10 79° ENE 17:53:17 10° NNW
ATLAS 5 CENTAUR R/B 2.5 17:44:41 10° WSW 17:48:56 45° NNW 17:53:48 10° NE
Cosmos 1626 Rocket 3.5 17:45:38 10° S 17:49:58 77° E 17:54:18 10° NNE
CZ-4B R/B 3.8 17:47:50 10° NNW 17:50:06 19° WNW 17:52:20 10° WSW
Cosmos 372 Rocket 4.2 17:47:52 10° SSW 17:53:00 72° WNW 17:58:13 10° NNE
ERBS 3.9 17:51:21 10° S 17:53:57 21° SE 17:55:37 15° E
SL-16 R/B 2.6 17:49:36 10° NNW 17:54:59 41° NE 18:00:20 10° ESE
Meteor 1-24 Rocket 3.8 17:50:28 10° SSW 17:55:47 78° WNW 18:01:16 10° N
Starlink AS 2.7 17:53:02 10° WSW 17:55:57 81° SSE 17:57:52 20° ENE
Starlink BA 2.7 17:53:17 10° WSW 17:56:12 81° SSE 17:58:06 20° ENE
Cosmos 1271 Rocket 3.0 17:52:33 10° SSW 17:56:17 67° WNW 18:00:03 10° N
Starlink AU 2.7 17:53:29 10° WSW 17:56:26 81° SSE 17:58:19 20° ENE
Starlink AQ 2.7 17:53:41 10° WSW 17:56:39 82° SSE 17:58:33 20° ENE
Starlink AT 2.6 17:53:44 10° WSW 17:56:40 82° SSE 17:58:33 20° ENE
Starlink BB 2.6 17:53:57 10° WSW 17:56:52 82° SSE 17:58:45 20° ENE
Cosmos 1269 Rocket 4.0 17:51:46 10° NNW 17:57:05 85° ENE 18:02:23 10° SSE
Starlink BC 2.6 17:54:10 10° WSW 17:57:06 82° SSE 17:58:58 20° ENE
Starlink BK 2.6 17:54:23 10° WSW 17:57:19 82° SSE 17:59:11 20° ENE
CZ-4C R/B 3.6 17:50:33 10° NW 17:57:31 60° SW 18:05:29 10° SSE
Starlink AY 2.6 17:54:38 10° WSW 17:57:34 82° SSE 17:59:24 20° ENE
Nadezhda 3 Rocket 4.1 17:51:17 10° N 17:57:36 88° W 18:03:56 10° S
Starlink AW 2.6 17:54:51 10° WSW 17:57:47 82° SSE 17:59:37 20° ENE
Starlink BJ 2.6 17:55:05 10° WSW 17:58:00 83° SSE 17:59:50 21° ENE
Starlink AV 2.6 17:55:17 10° WSW 17:58:13 83° SSE 18:00:03 21° ENE
Starlink BD 2.6 17:55:32 10° WSW 17:58:28 83° SSE 18:00:16 21° ENE
Okean O Rocket 4.2 17:54:55 10° SSW 17:58:32 24° W 18:02:11 10° NW
Starlink BE 2.7 17:55:44 10° WSW 17:58:42 83° SSE 18:00:32 21° ENE
Starlink BM 2.6 17:55:58 10° WSW 17:58:54 83° SSE 18:00:43 21° ENE
Starlink AX 2.6 17:56:12 10° WSW 17:59:09 84° SSE 18:00:55 21° ENE
Starlink BH 2.6 17:56:26 10° WSW 17:59:22 84° SSE 18:01:09 21° ENE
Okean-O 2.6 17:54:58 10° SSE 17:59:25 85° ENE 18:03:53 10° NNW
Starlink AZ 2.6 17:56:39 10° WSW 17:59:35 84° SSE 18:01:21 21° ENE
Starlink BG 2.6 17:56:53 10° WSW 17:59:49 84° SSE 18:01:34 22° ENE
Starlink BF 2.6 17:57:06 10° WSW 18:00:01 84° SSE 18:01:47 22° ENE
Starlink BL 2.7 17:57:18 10° WSW 18:00:15 85° SSE 18:02:02 22° ENE
Starlink AH 2.6 17:57:33 10° WSW 18:00:29 85° SSE 18:02:13 22° ENE
Starlink AC 2.6 17:57:47 10° WSW 18:00:43 85° SSE 18:02:26 22° ENE
Starlink X 2.6 17:58:00 10° WSW 18:00:56 85° SSE 18:02:39 22° ENE
Starlink AE 2.7 17:58:11 10° WSW 18:01:08 85° S 18:02:54 22° ENE
Starlink Z 2.6 17:58:27 10° WSW 18:01:23 85° SSE 18:03:05 22° ENE
Starlink AK 2.6 17:58:40 10° WSW 18:01:36 86° SSE 18:03:18 23° ENE
Cosmos 1340 Rocket 2.9 17:57:44 10° NNW 18:01:42 77° WSW 18:05:40 10° S
Starlink AL 2.6 17:58:53 10° WSW 18:01:50 86° SSE 18:03:31 23° ENE
Starlink AD 2.6 17:59:07 10° WSW 18:02:03 86° SSE 18:03:44 23° ENE
Starlink Y 2.6 17:59:34 10° WSW 18:02:29 86° S 18:04:09 23° ENE
Starlink AG 2.6 17:59:47 10° WSW 18:02:43 87° SSE 18:04:22 23° ENE
Starlink W 2.6 17:59:58 10° WSW 18:02:56 87° SSE 18:04:37 23° ENE
Starlink AJ 2.6 18:00:14 10° WSW 18:03:10 87° SSE 18:04:48 24° ENE
Starlink AM 2.6 18:00:42 10° WSW 18:03:38 87° SSE 18:05:15 24° ENE
Starlink AP 2.6 18:00:54 10° WSW 18:03:51 87° S 18:05:28 24° ENE
Starlink AA 2.6 18:01:08 10° WSW 18:04:04 88° SSE 18:05:40 24° ENE
Cosmos 2219 3.5 17:58:45 10° S 18:04:06 48° ESE 18:09:12 12° NE
Starlink AF 2.6 18:01:21 10° WSW 18:04:17 88° S 18:05:53 24° ENE
Starlink AB 2.6 18:01:35 10° WSW 18:04:31 88° SSE 18:06:06 24° ENE
Starlink AN 2.6 18:01:48 10° WSW 18:04:43 88° S 18:06:18 24° ENE
SL-14 R/B 3.6 18:02:25 10° SSW 18:06:24 71° W 18:10:23 10° N
SJ 16-02 3.8 18:04:38 10° W 18:07:42 18° NW 18:10:46 10° N
Cosmos 1825 Rocket 3.9 18:06:00 10° SSE 18:10:04 40° E 18:14:09 10° NNE
Cosmos 1607 4.0 18:05:22 10° SW 18:11:30 79° NW 18:17:11 13° NE
Cosmos 1980 4.1 18:09:44 10° NW 18:15:25 69° WSW 18:21:03 10° SSE
Cosmos 2297 Rocket 2.6 18:10:56 10° S 18:16:13 43° ESE 18:20:19 16° NE
USA 267 3.3 18:12:10 16° ENE 18:17:31 79° NNW 18:24:03 10° WSW
FengYun 1-2 T 4.3 18:12:00 10° SSE 18:17:39 87° WSW 18:23:22 10° NNW
Timation 2 Rocket 4.2 18:13:39 10° SW 18:19:47 74° NW 18:26:15 10° NNE
Starlink T 2.7 18:17:54 10° W 18:20:56 81° NNW 18:22:00 37° ENE
Meteor 2-17 Rocket 4.4 18:14:56 10° S 18:21:05 79° E 18:27:14 10° NNE
SL-8 Rocket 4.1 18:15:39 10° SSE 18:21:42 51° E 18:27:45 10° NNE
Starlink N 2.7 18:19:22 10° W 18:22:24 80° NNW 18:23:25 38° ENE
Iridium 96 4.0 18:22:58 39° SE 18:22:58 39° SE 18:24:46 10° SSE
Cosmos 2219 Rocket 4.4 18:18:00 10° NW 18:22:46 28° WSW 18:27:30 10° SSW
Starlink Q 2.7 18:21:07 10° W 18:24:10 79° N 18:25:06 40° ENE
SKYMED 2 3.5 18:21:11 10° NNE 18:25:32 67° ESE 18:29:52 10° S
Starlink P 2.7 18:22:41 10° W 18:25:43 78° NNW 18:26:36 42° ENE
Cosmos 2341 Rocket 4.0 18:20:30 10° S 18:26:50 73° E 18:33:11 10° NNE
Starlink U 2.7 18:24:14 10° W 18:27:17 77° N 18:28:06 44° ENE
USA 116 4.1 18:27:57 29° ESE 18:27:57 29° ESE 18:30:15 10° SSE
Starlink AR 2.3 18:25:38 10° W 18:28:12 71° NNW 18:28:31 60° NE
Cosmos 2227 Rocket 2.4 18:23:17 10° S 18:28:40 48° ESE 18:32:19 20° NE
Starlink B 2.7 18:25:49 10° W 18:28:52 77° NNW 18:29:38 46° ENE
NOAA 11 4.1 18:25:20 10° SSE 18:30:48 71° ENE 18:36:18 10° NNW
Ariane Rocket 3.4 18:26:59 10° SE 18:31:39 38° ENE 18:36:20 10° N
Cosmos 1939 Rocket 2.7 18:31:43 10° SSE 18:35:36 63° ENE 18:39:32 10° N
Cosmos 2221 4.2 18:32:27 10° NNE 18:33:55 17° NNE 18:33:55 17° NNE
Starlink D 2.8 18:34:09 10° W 18:37:13 73° N 18:37:41 58° NE
Starlink S 2.7 18:35:27 10° W 18:38:30 72° N 18:38:53 60° NE
ARGOS 4.0 18:40:05 27° ENE 18:40:05 27° ENE 18:44:30 10° N
Starlink C 2.7 18:37:24 10° W 18:40:28 72° N 18:40:49 62° NE
Meteor 2-10 Rocket 3.4 18:36:20 10° NNW 18:41:46 84° ENE 18:46:56 10° SSE
Cosmos 1943 4.1 18:37:16 10° NNW 18:42:05 28° NE 18:42:49 27° NE
Starlink E 2.7 18:39:05 10° W 18:42:09 71° N 18:42:26 65° NE
Cosmos-2242 3.1 18:38:43 10° NNW 18:43:04 76° W 18:47:21 10° S
Starlink J 2.7 18:40:45 10° W 18:43:50 71° N 18:44:02 67° NNE
Cosmos 1703 3.5 18:41:29 10° SSE 18:45:17 47° E 18:45:37 45° ENE
Starlink V 2.8 18:42:23 10° W 18:45:28 70° N 18:45:37 68° NNE
YAOGAN 1 2.7 18:42:36 10° S 18:46:56 76° WSW 18:51:17 10° NNW
Starlink H 2.8 18:44:05 10° W 18:47:09 70° N 18:47:14 69° N
Starlink F 2.8 18:45:45 10° W 18:48:50 69° N 18:48:52 69° N
Starlink G 2.9 18:47:26 10° W 18:50:28 68° NNW 18:50:28 68° NNW
Cosmos 44 3.6 18:47:54 10° S 18:52:07 38° ESE 18:52:11 38° ESE
H-2A R/B 2.7 18:52:43 33° NE 18:52:43 33° NE 18:56:44 10° N
Starlink L 2.9 18:49:07 10° W 18:52:05 67° NNW 18:52:05 67° NNW
Starlink A 3.0 18:50:48 10° W 18:53:43 65° NNW 18:53:43 65° NNW
Cosmos 1339 Rocket 4.4 18:49:21 10° N 18:55:28 84° W 19:01:35 10° S
Starlink R 3.1 18:52:30 10° W 18:55:21 63° NW 18:55:21 63° NW
Cosmos 2251 Rocket 3.4 18:50:47 10° NNW 18:56:06 81° ENE 19:01:27 10° SSE
Cosmos 2218 Rocket 3.9 18:50:31 10° S 18:56:50 75° E 19:03:15 10° NNE
Starlink K 3.2 18:54:10 10° W 18:56:57 61° NW 18:56:57 61° NW
Starlink M 3.3 18:55:48 10° W 18:58:32 59° NW 18:58:32 59° NW
Cosmos 864 Rocket 4.3 18:54:02 10° S 19:00:08 72° E 19:06:15 10° NNE
DMSP B5D1-3 4.4 18:56:48 19° NNE 19:00:25 62° ESE 19:05:28 10° S
ATLAS CENTAUR R/B 1.1 18:57:01 10° NW 19:01:11 68° NE 19:01:19 67° ENE
ISS -2.1 18:59:15 10° SSW 19:01:16 24° S 19:01:16 24° S
CZ-4 R/B 2.9 19:03:30 10° SSW 19:07:17 37° W 19:11:11 10° NNW
Cosmos 2082 Rocket 4.5 19:11:40 10° N 19:12:15 10° N 19:12:50 10° N
COSMO-SKYMED 1 3.6 19:09:26 10° N 19:13:35 44° WNW 19:17:43 10° SW
CZ-2D R/B 4.1 19:11:11 10° S 19:14:54 49° W 19:18:40 10° NNW
Cosmos 2237 Rocket 4.2 19:11:51 10° NW 19:16:31 27° WSW 19:21:10 10° SSW
Cosmos 1953 Rocket 3.9 19:13:40 10° SSW 19:18:07 65° WNW 19:21:40 16° N
Cosmos 1959 Rocket 4.5 19:12:17 10° SSW 19:18:28 82° W 19:24:38 10° N
Cosmos 1842 Rocket 3.5 19:14:51 10° N 19:18:59 71° NNE 19:18:59 71° NNE
CZ-2C R/B 3.7 19:23:27 41° NNE 19:23:27 41° NNE 19:27:43 10° N
Cosmos 1455 3.9 19:19:53 10° NNW 19:23:22 34° W 19:26:48 10° SSW
Cosmos 1356 Rocket 3.5 19:21:47 10° NNW 19:25:48 70° W 19:25:52 69° WSW
Cosmos 1000 Rocket 4.3 19:20:24 10° N 19:26:35 66° ENE 19:28:48 40° SE
ADEOS Rocket 3.1 19:23:09 10° NNE 19:29:39 74° ESE 19:36:50 10° S
ERBS 4.0 19:26:40 10° WSW 19:28:37 32° WSW 19:28:37 32° WSW
Cosmos 2366 rocket 4.2 19:24:43 10° SSW 19:30:55 71° WNW 19:37:14 10° N
Meteor 1-27 4.1 19:25:22 10° NNW 19:30:59 87° W 19:35:58 13° S
Meteor 2-2 Rocket 4.2 19:26:40 10° N 19:32:43 72° ENE 19:33:56 56° SE
ATLAS 5 CENTAUR R/B 3.5 19:30:57 10° WNW 19:34:47 23° N 19:35:26 23° N
Meteor 1-11 4.1 19:30:55 10° S 19:36:32 89° E 19:38:45 39° NNE
NOSS 3-3 (A) 4.5 19:32:02 10° NW 19:39:07 58° NE 19:40:14 53° ENE
SL-16 R/B 3.2 19:33:49 10° NW 19:39:11 45° WSW 19:44:32 10° S
NOSS 3-3 (C) 4.5 19:32:08 10° NW 19:39:13 58° NE 19:40:18 53° ENE
Cosmos 407 Rocket 4.3 19:42:08 10° NNW 19:45:40 40° N 19:45:40 40° N
Cosmos 2219 4.4 19:43:10 10° WSW 19:48:25 39° NW 19:51:10 24° N
Cosmos 2082 3.7 19:44:44 10° SW 19:50:21 75° WNW 19:50:54 69° N
Meteor 2-12 Rocket 4.3 19:44:49 10° S 19:50:53 85° W 19:56:59 10° N
Cosmos 1603 3.8 19:46:04 10° NNW 19:51:03 67° N 19:51:03 67° N
USA 267 3.5 19:59:31 53° NNE 20:00:16 56° N 20:06:38 10° W
Cosmos 2297 Rocket 3.2 19:54:56 10° WSW 20:00:18 43° NW 20:02:09 33° N
Ariane Rocket 4.3 20:05:57 10° SSW 20:10:38 37° W 20:15:21 10° NNW
Cosmos 2227 Rocket 3.3 20:07:36 10° WSW 20:12:52 39° NW 20:14:11 34° NNW
ARGOS 4.1 20:21:35 42° NW 20:21:35 42° NW 20:25:19 10° NNW
Cosmos 1943 4.2 20:21:05 10° NNW 20:24:39 40° NW 20:24:39 40° NW
H-2A R/B 3.6 20:33:19 31° NW 20:33:19 31° NW 20:36:22 10° NNW
ATLAS CENTAUR R/B 4.4 20:36:52 10° WNW 20:37:32 13° WNW 20:37:32 13° WNW
ATLAS 5 CENTAUR R/B 4.4 21:02:34 10° WNW 21:08:09 58° SW 21:09:02 57° SSW
